Regional Weather Roundup
Issued by NWS

Home | Current Version | Previous Version | Graphics & Text | Print | Product List | Glossary Off
Versions: 1 2 3 4 5 6 7 8 9 10 11 12 13 14 15 16 17 18 19 20 21 22 23 24 25 26 27 28 29 30 31 32 33 34 35 36 37 38 39 40 41 42 43 44 45 46 47 48 49 50

000
ASUS43 KDMX 240503
RWRIA

WEATHER ROUNDUP FOR IOWA
NATIONAL WEATHER SERVICE DES MOINES IA
1200 AM CDT SUN JUL 24 2016

NOTE: "FAIR" INDICATES FEW OR NO CLOUDS BELOW 12,000 FEET WITH NO
SIGNIFICANT WEATHER AND/OR OBSTRUCTIONS TO VISIBILITY.

* - THESE STATIONS ARE NOT NWS STATIONS...THUS NOT UNDER NWS
QUALITY CONTROL.  THEY ALSO DO NOT REPORT WEATHER SUCH
AS PRECIPITATION OR FOG.

IAZ001>003-012>014-020>022-031>034-043>046-240600-
   NORTHWEST IOWA

CITY           SKY/WX    TMP DP  RH WIND       PRES   REMARKS
CARROLL *      CLOUDY    79  77  94 SW8       29.82S HX  83
CHEROKEE *     CLEAR     78  78  99 S6        29.80S HX  81
DENISON *      CLEAR     79  77  94 S6G13     29.81R HX  83
LE MARS *      CLEAR     81  77  89 CALM      29.80R HX  88
SHELDON *      CLEAR     79  77  94 SW8       29.79S HX  83
SIOUX CITY     CLEAR     82  76  81 SE6       29.79R HX  89
SPENCER        CLEAR     79  75  87 SW7       29.80R HX  83
STORM LAKE *   CLEAR     79  77  94 SW7       29.82S HX  83
$$

IAZ055>058-069>071-079>083-090>094-240600-
   SOUTHWEST IOWA

CITY           SKY/WX    TMP DP  RH WIND       PRES   REMARKS
ATLANTIC *     CLOUDY    81  73  78 S8        29.83S HX  85
CLARINDA *       N/A     77  73  88 MISG      29.86S
COUNCIL BLFS *   N/A     82  75  78 SW9       29.83S HX  89
CRESTON *      CLOUDY    79  75  89 S10       29.88R HX  82
HARLAN  *      CLEAR     79  77  94 S7        29.86S HX  83
LAMONI         CLEAR     79  77  94 S6        29.88R HX  83
RED OAK *      CLOUDY    81  75  83 S7        29.83S HX  86
SHENANDOAH *   CLOUDY    81  75  83 CALM      29.84R HX  86
$$

IAZ047>049-059>061-072>074-084-240600-
   CENTRAL IOWA

CITY           SKY/WX    TMP DP  RH WIND       PRES   REMARKS
AMES           CLOUDY    80  77  90 S9        29.82S HX  87
ANKENY *         N/A    N/A N/A N/A MISG        N/A
BOONE *        CLOUDY    81  75  83 S6        29.83R HX  86
CHARITON *       N/A    N/A N/A N/A MISG        N/A
DES MOINES     MOCLDY    82  77  84 S9        29.83R HX  90
GRINNELL*      CLEAR     80  75  86 S9        29.87S HX  84
KNOXVILLE *    PTCLDY    81  75  83 S10G16    29.85S HX  86
MARSHALLTOWN   CLEAR     80  77  90 S9        29.83S HX  87
NEWTON *       PTCLDY    79  79 100 S9        29.85R HX  83
PELLA *        PTCLDY    81  75  82 S7        29.86S HX  86
PERRY *          N/A     79  76  90 S6        29.82S HX  83
$$

IAZ004>006-015-016-023>025-035-036-240600-
   NORTH CENTRAL IOWA

CITY           SKY/WX    TMP DP  RH WIND       PRES   REMARKS
ALGONA *       CLEAR     77  75  94 S6        29.81R
ESTHERVILLE    CLEAR     75  75 100 S5        29.79S
FORT DODGE *   CLEAR     81  75  83 S8        29.82R HX  86
FOREST CITY *    N/A     73  73 100 SE3       29.82S FOG
IOWA FALLS *     N/A     78  75  92 S7        29.84F HX  80
$$

IAZ007>011-017>019-026>030-037>042-050>054-066-240600-
   NORTHEAST IOWA

CITY           SKY/WX    TMP DP  RH WIND       PRES   REMARKS
CEDAR RAPIDS   PTCLDY    79  79 100 S8        29.87S HX  84
CHARLES CITY * PTCLDY    73  73 100 S7        29.84S
CLINTON *      CLOUDY    73  71  93 S8        29.90F
DECORAH *      PTCLDY    70  70 100 S8        29.85S
DUBUQUE        MOCLDY    72  69  90 S13       29.89S
MONTICELLO *   CLEAR     73  73 100 SE6       29.88R
OELWEIN *      MOCLDY    75  73  94 S10       29.86S
WATERLOO       CLEAR     76  74  93 S7        29.82S
$$

IAZ064-065-067-068-078-240600-
   EAST CENTRAL IOWA

CITY           SKY/WX    TMP DP  RH WIND       PRES   REMARKS
DAVENPORT      CLOUDY    76  71  85 S9        29.91S
IOWA CITY      CLEAR     79  78  97 S3        29.89R HX  83
MT. PLEASANT * CLEAR     83  83  99 SE8       29.90S HX 101
MUSCATINE *    CLOUDY    84  79  84 S10       29.89S HX  96
QUAD CITIES    CLOUDY    78  71  79 SE10      29.90F HX  80
$$

IAZ062-063-075>077-085>089-095>099-240600-
   SOUTHEAST IOWA

CITY           SKY/WX    TMP DP  RH WIND       PRES   REMARKS
BURLINGTON     CLOUDY    82  79  90 S10       29.91S HX  92
FAIRFIELD *    CLEAR     82  77  83 S7        29.89R HX  91
KEOKUK *       CLOUDY    82  79  89 SE6       29.91S HX  93
CENTERVILLE *    N/A     81  77  89 S5        29.90F HX  88
OTTUMWA        PTCLDY    81  76  84 S7        29.88R HX  87
WASHINGTON *   CLEAR     82  81  94 S9        29.90S HX  95
$$

ABBREVIATIONS USED IN REMARKS
   TC - TEMPERATURES IN CELSIUS
  WCI - WIND CHILL INDEX
   HX - HEAT INDEX
  VSB - VISIBILITY
$$




USA.gov is the U.S. government's official web portal to all federal, state and local government web resources and services.